Hourly Data Report for September 19, 2017

All times are specified in Local Standard Time (LST). Add 1 hour to adjust for Daylight Saving Time where and when it is observed.

RESOLUTE BAY A
NUNAVUT

74°43'01.000" N
94°58'10.000" W
67.70 m
2403498
71924
YRB

Download Data

Hourly Data (September 2017)
Hourly Data Report for September 19, 2017
Temp Definition
°C
Dew Point Temp Definition
°C
Rel Hum Definition
%
Wind Dir Definition
10's deg

Wind Spd Definition
km/h
Visibility Definition
km
Stn Press Definition
kPa
Hmdx Definition


Wind Chill Definition


Weather Definition


TIME
00:00 Legend Double Dagger -9.6 -12.2 82 29 11 24.1 101.54   -15 Clear
01:00 Legend Double Dagger -9.6 -12.2 82 33 11 24.1 101.59   -15 LegendNANA
02:00 Legend Double Dagger -9.9 -12.4 82 4 7 24.1 101.65   -14 LegendNANA
03:00 Legend Double Dagger -10.6 -13.2 81 36 8 24.1 101.68   -15 Mainly Clear
04:00 Legend Double Dagger -9.8 -12.8 79 31 10 24.1 101.69   -15 LegendNANA
05:00 Legend Double Dagger -8.7 -13.5 69 26 10 24.1 101.74   -14 LegendNANA
06:00 Legend Double Dagger -10.6 -14.2 75 2 13 24.1 101.78   -17 Clear
07:00 Legend Double Dagger -10.8 -14.2 76 4 33 24.1 101.80   -21 LegendNANA
08:00 Legend Double Dagger -10.2 -14.0 74 5 27 24.1 101.87   -19 LegendNANA
09:00 Legend Double Dagger -8.6 -13.8 66 35 13 24.1 101.88   -15 Clear
10:00 Legend Double Dagger -8.4 -12.7 71 5 20 24.1 101.90   -16 LegendNANA
11:00 Legend Double Dagger -8.3 -12.4 72 5 21 24.1 101.91   -16 LegendNANA
12:00 Legend Double Dagger -7.5 -12.2 69 2 12 24.1 101.92   -13 Mainly Clear
13:00 Legend Double Dagger -7.0 -11.6 70 31 4 24.1 101.93   -9 LegendNANA
14:00 Legend Double Dagger -6.9 -11.8 68 31 12 24.1 101.96   -12 LegendNANA
15:00 Legend Double Dagger -7.2 -11.7 71 5 25 24.1 101.98   -15 Clear
16:00 Legend Double Dagger -7.0 -10.9 74 29 9 24.1 102.01   -11 LegendNANA
17:00 Legend Double Dagger -7.1 -10.4 77 31 13 24.1 102.03   -13 LegendNANA
18:00 Legend Double Dagger -7.4 -10.3 80 35 5 24.1 102.05   -10 Clear
19:00 Legend Double Dagger -7.3 -10.1 80 32 9 24.1 102.07   -12 LegendNANA
20:00 Legend Double Dagger -5.5 -9.8 71 33 4 24.1 102.09   -7 LegendNANA
21:00 Legend Double Dagger -5.8 -10.8 68 11 3 24.1 102.11   -7 Clear
22:00 Legend Double Dagger -7.6 -12.8 66 22 5 24.1 102.13   -10 LegendNANA
23:00 Legend Double Dagger -6.2 -12.6 61 3 13 24.1 102.14   -12 LegendNANA

Notes on Data Quality.

Legend

  • E = Estimated
  • M = Missing
  • NA = Not Available
  • ‡ = Partner data that is not subject to review by the National Climate Archives
Date modified: